| time (UTC) | temp C | wind direction | speed KPH | gust KPH | rain 1hr cm | rain 24hr cm | rain mn cm | humidity % | barometer mb |
| 20260903075438 | 22 | 113 | 0.0 | 0.0 | 0.00 | 0.05 | 0.00 | 93 | 1016.4 |
| 20260903074438 | 22 | 113 | 0.0 | 0.0 | 0.00 | 0.05 | 0.00 | 93 | 1016.5 |
| 20260903073438 | 22 | 113 | 0.0 | 0.0 | 0.00 | 0.05 | 0.00 | 93 | 1016.4 |
| 20260903072438 | 22 | 113 | 0.0 | 0.0 | 0.00 | 0.05 | 0.00 | 93 | 1016.4 |
| 20260903071438 | 22 | 113 | 0.0 | 0.0 | 0.00 | 0.05 | 0.00 | 92 | 1016.4 |
| 20260903070508 | 23 | 113 | 0.0 | 0.0 | 0.00 | 0.05 | 0.00 | 93 | 1016.4 |
| 20260903065438 | 23 | 113 | 0.0 | 0.0 | 0.00 | 0.05 | 0.00 | 93 | 1016.4 |
| 20260903064508 | 23 | 113 | 0.0 | 0.0 | 0.00 | 0.05 | 0.00 | 93 | 1016.4 |
| 20260903063438 | 23 | 113 | 0.0 | 0.0 | 0.00 | 0.05 | 0.00 | 92 | 1016.6 |
| 20260903062508 | 23 | 113 | 0.0 | 0.0 | 0.00 | 0.05 | 0.00 | 92 | 1016.4 |
| 20260903061438 | 23 | 113 | 0.0 | 0.0 | 0.00 | 0.05 | 0.00 | 92 | 1016.6 |
| 20260903060438 | 23 | 113 | 0.0 | 0.0 | 0.00 | 0.05 | 0.00 | 92 | 1016.8 |
| 20260903055438 | 23 | 113 | 0.0 | 0.0 | 0.00 | 0.05 | 0.00 | 92 | 1016.9 |
| 20260903054438 | 23 | 113 | 0.0 | 0.0 | 0.00 | 0.05 | 0.00 | 92 | 1017.1 |
| 20260903053438 | 23 | 113 | 0.0 | 0.0 | 0.00 | 0.05 | 0.00 | 92 | 1017.1 |
| 20260903052438 | 23 | 113 | 0.0 | 0.0 | 0.00 | 0.05 | 0.00 | 92 | 1017.0 |
| 20260903051438 | 23 | 113 | 0.0 | 0.0 | 0.00 | 0.05 | 0.00 | 92 | 1017.2 |
| 20260903050438 | 23 | 113 | 0.0 | 0.0 | 0.00 | 0.05 | 0.00 | 92 | 1017.1 |
| 20260903045438 | 23 | 113 | 0.0 | 0.0 | 0.00 | 0.05 | 0.00 | 92 | 1017.1 |
| 20260903044508 | 23 | 113 | 0.0 | 0.0 | 0.00 | 0.05 | 0.00 | 92 | 1017.0 |
| 20260903043438 | 23 | 113 | 0.0 | 0.0 | 0.00 | 0.05 | 0.00 | 92 | 1016.9 |
| 20260903042438 | 23 | 113 | 0.0 | 0.0 | 0.00 | 0.05 | 0.00 | 93 | 1017.0 |
| 20260903041438 | 23 | 113 | 0.0 | 0.0 | 0.00 | 0.05 | 0.00 | 93 | 1017.0 |
| 20260903040438 | 23 | 113 | 0.0 | 0.0 | 0.00 | 0.05 | 0.05 | 93 | 1017.1 |
| 20260903035438 | 23 | 113 | 0.0 | 0.0 | 0.00 | 0.05 | 0.05 | 93 | 1017.2 |
| 20260903034438 | 23 | 113 | 0.0 | 0.0 | 0.00 | 0.05 | 0.05 | 93 | 1017.1 |
| 20260903033438 | 22 | 113 | 0.0 | 0.0 | 0.00 | 0.05 | 0.05 | 93 | 1017.1 |
| 20260903032508 | 22 | 113 | 0.0 | 0.0 | 0.00 | 0.05 | 0.05 | 93 | 1017.1 |
| 20260903031438 | 22 | 113 | 0.0 | 0.0 | 0.00 | 0.05 | 0.05 | 92 | 1017.1 |
| 20260903030438 | 22 | 113 | 0.0 | 0.0 | 0.00 | 0.05 | 0.05 | 93 | 1016.8 |
| 20260903025438 | 22 | 113 | 0.0 | 0.0 | 0.00 | 0.05 | 0.05 | 92 | 1016.8 |
| 20260903024438 | 22 | 113 | 0.0 | 0.0 | 0.00 | 0.05 | 0.05 | 92 | 1016.9 |
| 20260903023439 | 22 | 113 | 0.0 | 0.0 | 0.00 | 0.05 | 0.05 | 92 | 1016.9 |
| 20260903022438 | 22 | 113 | 0.0 | 0.0 | 0.00 | 0.05 | 0.05 | 92 | 1016.8 |
| 20260903021438 | 22 | 113 | 0.0 | 0.0 | 0.00 | 0.05 | 0.05 | 92 | 1017.0 |
| 20260903020438 | 22 | 113 | 0.0 | 0.0 | 0.00 | 0.05 | 0.05 | 92 | 1017.4 |
| 20260903014538 | 22 | 113 | 0.0 | 0.0 | 0.00 | 0.05 | 0.05 | 92 | 1017.5 |
| 20260903013438 | 22 | 113 | 0.0 | 0.0 | 0.00 | 0.05 | 0.05 | 92 | 1017.4 |
| 20260903012438 | 22 | 113 | 0.0 | 0.0 | 0.00 | 0.05 | 0.05 | 92 | 1017.3 |
| 20260903010508 | 22 | 113 | 0.0 | 0.0 | 0.00 | 0.05 | 0.05 | 92 | 1017.2 |
| 20260903005438 | 22 | 113 | 0.0 | 0.0 | 0.00 | 0.05 | 0.05 | 91 | 1017.3 |
| 20260903004438 | 22 | 113 | 0.0 | 0.0 | 0.00 | 0.05 | 0.05 | 91 | 1017.2 |
| 20260903002438 | 22 | 113 | 0.0 | 0.0 | 0.00 | 0.05 | 0.05 | 91 | 1016.9 |
| 20260903001438 | 22 | 113 | 0.0 | 0.0 | 0.00 | 0.05 | 0.05 | 91 | 1016.6 |
| 20260903000508 | 22 | 113 | 0.0 | 0.0 | 0.00 | 0.05 | 0.05 | 91 | 1016.6 |
| 20260902235438 | 23 | 113 | 0.0 | 0.0 | 0.00 | 0.05 | 0.05 | 91 | 1016.8 |
| 20260902234508 | 23 | 113 | 0.0 | 0.0 | 0.00 | 0.05 | 0.05 | 91 | 1016.8 |
| 20260902232438 | 23 | 113 | 0.0 | 0.0 | 0.00 | 0.05 | 0.05 | 90 | 1017.2 |
| 20260902230438 | 23 | 113 | 0.0 | 0.0 | 0.00 | 0.05 | 0.05 | 90 | 1017.2 |
| 20260902225438 | 23 | 111 | 0.0 | 0.0 | 0.00 | 0.05 | 0.05 | 89 | 1017.1 |
| 20260902224438 | 23 | 105 | 0.0 | 0.0 | 0.00 | 0.05 | 0.05 | 89 | 1016.9 |
| 20260902223438 | 23 | 99 | 0.0 | 0.0 | 0.00 | 0.05 | 0.05 | 89 | 1016.9 |
| 20260902222439 | 23 | 123 | 0.0 | 0.0 | 0.00 | 0.05 | 0.05 | 89 | 1016.9 |
| 20260902221438 | 23 | 76 | 0.0 | 0.0 | 0.00 | 0.05 | 0.05 | 88 | 1016.9 |
| 20260902220439 | 23 | 76 | 0.0 | 0.0 | 0.00 | 0.05 | 0.05 | 88 | 1017.1 |
| 20260902215438 | 23 | 76 | 0.0 | 0.0 | 0.00 | 0.05 | 0.05 | 88 | 1016.8 |
| 20260902214439 | 23 | 76 | 0.0 | 0.0 | 0.00 | 0.05 | 0.05 | 88 | 1017.2 |
| 20260902213439 | 24 | 76 | 0.0 | 0.0 | 0.00 | 0.05 | 0.05 | 88 | 1017.5 |
| 20260902212509 | 24 | 76 | 0.0 | 0.0 | 0.00 | 0.05 | 0.05 | 87 | 1017.5 |
| 20260902211439 | 23 | 76 | 0.0 | 0.0 | 0.00 | 0.05 | 0.05 | 88 | 1017.3 |
| 20260902210439 | 23 | 76 | 0.0 | 0.0 | 0.00 | 0.05 | 0.05 | 88 | 1017.6 |
| 20260902205439 | 23 | 61 | 0.0 | 0.0 | 0.00 | 0.05 | 0.05 | 88 | 1017.6 |
| 20260902204439 | 23 | 61 | 0.0 | 0.0 | 0.00 | 0.05 | 0.05 | 88 | 1018.0 |
| 20260902203439 | 23 | 61 | 0.0 | 0.0 | 0.00 | 0.05 | 0.05 | 89 | 1018.3 |
| 20260902202509 | 23 | 61 | 0.0 | 0.0 | 0.00 | 0.05 | 0.05 | 88 | 1018.1 |
| 20260902200439 | 23 | 61 | 0.0 | 0.0 | 0.00 | 0.05 | 0.05 | 88 | 1017.9 |
| 20260902194509 | 24 | 61 | 0.0 | 0.0 | 0.05 | 0.05 | 0.05 | 87 | 1018.2 |
| 20260902193439 | 24 | 61 | 0.0 | 3.2 | 0.05 | 0.05 | 0.05 | 85 | 1018.2 |
| 20260902192439 | 25 | 331 | 0.0 | 0.0 | 0.05 | 0.05 | 0.05 | 88 | 1018.0 |
| 20260902191439 | 24 | 331 | 0.0 | 0.0 | 0.05 | 0.05 | 0.05 | 87 | 1018.3 |
| 20260902190439 | 25 | 331 | 0.0 | 0.0 | 0.05 | 0.05 | 0.05 | 83 | 1018.4 |
| 20260902185439 | 27 | 298 | 1.6 | 4.8 | 0.00 | 0.00 | 0.00 | 79 | 1019.1 |
| 20260902184439 | 28 | 138 | 3.2 | 4.8 | 0.00 | 0.00 | 0.00 | 80 | 1019.5 |
| 20260902183439 | 28 | 320 | 0.0 | 0.0 | 0.00 | 0.00 | 0.00 | 81 | 1018.9 |
| 20260902182439 | 28 | 320 | 0.0 | 1.6 | 0.00 | 0.00 | 0.00 | 78 | 1018.9 |
| 20260902181439 | 29 | 320 | 0.0 | 0.0 | 0.00 | 0.00 | 0.00 | 80 | 1018.8 |
| 20260902180439 | 29 | 342 | 0.0 | 3.2 | 0.00 | 0.00 | 0.00 | 78 | 1018.6 |
| 20260902175439 | 29 | 225 | 0.0 | 0.0 | 0.00 | 0.00 | 0.00 | 79 | 1018.6 |
| 20260902174439 | 28 | 150 | 0.0 | 0.0 | 0.00 | 0.00 | 0.00 | 78 | 1018.5 |
| 20260902173439 | 29 | 80 | 0.0 | 1.6 | 0.00 | 0.00 | 0.00 | 78 | 1018.3 |
| 20260902172439 | 28 | 160 | 1.6 | 4.8 | 0.00 | 0.00 | 0.00 | 78 | 1018.4 |
| 20260902171439 | 28 | 108 | 0.0 | 4.8 | 0.00 | 0.00 | 0.00 | 78 | 1018.4 |
| 20260902170439 | 28 | 63 | 0.0 | 4.8 | 0.00 | 0.00 | 0.00 | 77 | 1018.2 |
| 20260902164439 | 28 | 111 | 0.0 | 3.2 | 0.00 | 0.00 | 0.00 | 79 | 1018.0 |
| 20260902162439 | 28 | 226 | 1.6 | 3.2 | 0.00 | 0.00 | 0.00 | 79 | 1018.2 |
| 20260902161439 | 28 | 226 | 0.0 | 1.6 | 0.00 | 0.00 | 0.00 | 79 | 1018.2 |
| 20260902160439 | 28 | 25 | 0.0 | 0.0 | 0.00 | 0.00 | 0.00 | 80 | 1018.3 |
| 20260902155439 | 28 | 19 | 0.0 | 1.6 | 0.00 | 0.00 | 0.00 | 81 | 1018.1 |
| 20260902154439 | 27 | 15 | 3.2 | 3.2 | 0.00 | 0.00 | 0.00 | 81 | 1018.2 |
| 20260902153439 | 27 | 52 | 0.0 | 3.2 | 0.00 | 0.00 | 0.00 | 81 | 1018.2 |
| 20260902152439 | 27 | 36 | 0.0 | 3.2 | 0.00 | 0.00 | 0.00 | 81 | 1018.2 |
| 20260902151439 | 27 | 55 | 1.6 | 3.2 | 0.00 | 0.00 | 0.00 | 82 | 1018.2 |
| 20260902150439 | 27 | 64 | 1.6 | 1.6 | 0.00 | 0.00 | 0.00 | 82 | 1018.2 |
| 20260902145439 | 27 | 55 | 3.2 | 3.2 | 0.00 | 0.00 | 0.00 | 82 | 1018.3 |
| 20260902144439 | 26 | 82 | 3.2 | 3.2 | 0.00 | 0.00 | 0.00 | 82 | 1018.2 |
| 20260902143439 | 27 | 57 | 0.0 | 4.8 | 0.00 | 0.00 | 0.00 | 83 | 1018.1 |
| 20260902142439 | 26 | 35 | 0.0 | 3.2 | 0.00 | 0.00 | 0.00 | 83 | 1018.0 |
| 20260902141439 | 26 | 69 | 1.6 | 3.2 | 0.00 | 0.00 | 0.00 | 83 | 1018.1 |
| 20260902140439 | 26 | 186 | 0.0 | 1.6 | 0.00 | 0.00 | 0.00 | 84 | 1018.0 |
| 20260902135439 | 26 | 186 | 0.0 | 1.6 | 0.00 | 0.00 | 0.00 | 84 | 1018.1 |
| 20260902134439 | 26 | 284 | 0.0 | 0.0 | 0.00 | 0.00 | 0.00 | 84 | 1017.9 |
| 20260902133439 | 26 | 336 | 1.6 | 3.2 | 0.00 | 0.00 | 0.00 | 84 | 1017.8 |
| 20260902132439 | 26 | 350 | 0.0 | 0.0 | 0.00 | 0.00 | 0.00 | 86 | 1017.6 |
| 20260902130439 | 26 | 347 | 0.0 | 0.0 | 0.00 | 0.00 | 0.00 | 87 | 1017.5 |
| 20260902125439 | 26 | 347 | 0.0 | 1.6 | 0.00 | 0.00 | 0.00 | 87 | 1017.5 |
| 20260902124439 | 26 | 348 | 0.0 | 0.0 | 0.00 | 0.00 | 0.00 | 88 | 1017.4 |
| 20260902123439 | 26 | 348 | 0.0 | 0.0 | 0.00 | 0.00 | 0.00 | 88 | 1017.5 |
| 20260902122439 | 26 | 343 | 0.0 | 0.0 | 0.00 | 0.00 | 0.00 | 90 | 1017.5 |
| 20260902121439 | 26 | 343 | 0.0 | 0.0 | 0.00 | 0.00 | 0.00 | 90 | 1017.4 |
| 20260902120509 | 25 | 343 | 0.0 | 0.0 | 0.00 | 0.00 | 0.00 | 91 | 1017.4 |
| 20260902115439 | 25 | 343 | 0.0 | 0.0 | 0.00 | 0.00 | 0.00 | 92 | 1017.3 |
| 20260902114439 | 25 | 343 | 0.0 | 0.0 | 0.00 | 0.00 | 0.00 | 92 | 1017.3 |
| 20260902113439 | 25 | 343 | 0.0 | 0.0 | 0.00 | 0.00 | 0.00 | 92 | 1017.3 |
| 20260902112439 | 25 | 343 | 0.0 | 0.0 | 0.00 | 0.00 | 0.00 | 92 | 1017.2 |
| 20260902111439 | 24 | 138 | 0.0 | 0.0 | 0.00 | 0.00 | 0.00 | 92 | 1017.1 |
| 20260902110439 | 24 | 138 | 0.0 | 0.0 | 0.00 | 0.00 | 0.00 | 92 | 1017.0 |
| 20260902105439 | 24 | 292 | 0.0 | 0.0 | 0.00 | 0.00 | 0.00 | 92 | 1016.9 |
| 20260902104439 | 24 | 231 | 0.0 | 0.0 | 0.00 | 0.00 | 0.00 | 92 | 1016.8 |
| 20260902103439 | 24 | 32 | 0.0 | 0.0 | 0.00 | 0.00 | 0.00 | 92 | 1016.9 |
| 20260902102439 | 24 | 32 | 0.0 | 0.0 | 0.00 | 0.00 | 0.00 | 92 | 1016.8 |
| 20260902101439 | 24 | 32 | 0.0 | 0.0 | 0.00 | 0.00 | 0.00 | 92 | 1016.6 |
| 20260902100439 | 24 | 32 | 0.0 | 0.0 | 0.00 | 0.00 | 0.00 | 92 | 1016.6 |
| 20260902094509 | 24 | 32 | 0.0 | 0.0 | 0.00 | 0.00 | 0.00 | 91 | 1016.5 |
| 20260902093439 | 24 | 32 | 0.0 | 0.0 | 0.00 | 0.00 | 0.00 | 91 | 1016.5 |
| 20260902092439 | 24 | 32 | 0.0 | 0.0 | 0.00 | 0.00 | 0.00 | 91 | 1016.5 |
| 20260902090439 | 25 | 32 | 0.0 | 0.0 | 0.00 | 0.00 | 0.00 | 91 | 1016.6 |
| 20260902085439 | 25 | 32 | 0.0 | 0.0 | 0.00 | 0.00 | 0.00 | 90 | 1016.5 |
| 20260902084439 | 25 | 32 | 0.0 | 0.0 | 0.00 | 0.00 | 0.00 | 90 | 1016.5 |
| 20260902083439 | 25 | 32 | 0.0 | 0.0 | 0.00 | 0.00 | 0.00 | 89 | 1016.4 |
| 20260902082439 | 25 | 32 | 0.0 | 0.0 | 0.00 | 0.00 | 0.00 | 89 | 1016.3 |
| 20260902080439 | 25 | 32 | 0.0 | 0.0 | 0.00 | 0.00 | 0.00 | 88 | 1016.2 |